This is the latest recevied weather packets stored in our database for station/object WB7AAV. If no packets are shown the sender has not sent any weather packets the latest 10 day(s).
| Time | Temp. | Humidity | Pressure | Rain* | Wind** | Luminosity | Snow |
|---|---|---|---|---|---|---|---|
| 1777229025 | 8.89° C | 66% | 1004.3 hPa | 0 mm | - | - | - |
| 1777228908 | 9.44° C | 63% | 1004 hPa | 0 mm | - | - | - |
| 1777228784 | 9.44° C | 61% | 1004 hPa | 0 mm | - | - | - |
| 1777228664 | 10° C | 59% | 1004.2 hPa | 0 mm | - | - | - |
| 1777228544 | 10.56° C | 58% | 1004.4 hPa | 0 mm | - | - | - |
| 1777228426 | 11.11° C | 57% | 1004.4 hPa | 0 mm | - | - | - |
| 1777228369 | 11.11° C | 55% | 1004.4 hPa | 0 mm | - | - | - |
| 1777228184 | 11.67° C | 54% | 1004.3 hPa | 0 mm | - | - | - |
| 1777228064 | 11.67° C | 52% | 1004 hPa | 0 mm | - | - | - |
| 1777227944 | 12.22° C | 51% | 1003.9 hPa | 0 mm | - | - | - |
| 1777227824 | 12.22° C | 49% | 1003.8 hPa | 0 mm | - | - | - |
| 1777227708 | 12.78° C | 47% | 1003.7 hPa | 0 mm | - | - | - |
| 1777227582 | 13.33° C | 47% | 1003.7 hPa | 0 mm | - | - | - |
| 1777227462 | 13.33° C | 46% | 1003.6 hPa | 0 mm | - | - | - |
| 1777227342 | 13.89° C | 45% | 1003.4 hPa | 0 mm | - | - | - |
| 1777227222 | 14.44° C | 45% | 1003.8 hPa | 0 mm | - | - | - |
| 1777227101 | 14.44° C | 44% | 1003.9 hPa | 0 mm | - | - | - |
| 1777226982 | 14.44° C | 45% | 1003.9 hPa | 0 mm | - | - | - |
| 1777226879 | 14.44° C | 45% | 1004 hPa | 0 mm | - | - | - |
| 1777226742 | 14.44° C | 44% | 1004 hPa | 0 mm | - | - | - |
| 1777226622 | 15° C | 45% | 1004 hPa | 0 mm | - | - | - |
| 1777226499 | 14.44° C | 45% | 1004.2 hPa | 0 mm | - | - | - |
| 1777226380 | 14.44° C | 47% | 1004.2 hPa | 0 mm | - | - | - |
| 1777226260 | 13.89° C | 47% | 1004.3 hPa | 0 mm | - | - | - |
| 1777226139 | 13.33° C | 47% | 1004.2 hPa | 0 mm | - | - | - |
* Rain latest hour (hover to see other rain measurements)
** Current wind speed in m/s (hover to see current wind gust speed)